Regional Weather Roundup
Issued by NWS

Home | Current Version | Previous Version | Text Only | Print | Product List | Glossary Off
Versions: 1 2 3 4 5 6 7 8 9 10 11 12 13 14 15 16 17 18 19 20 21 22 23 24 25 26 27 28 29 30 31 32 33 34 35 36 37 38 39 40 41 42 43 44 45 46 47 48 49 50

821
ASUS44 KJAN 240510
RWRMS

MISSISSIPPI HOURLY WEATHER ROUNDUP
NATIONAL WEATHER SERVICE JACKSON MS
1100 PM CST SUN NOV 23 2014

NOTE: "FAIR: INDICATES FEW OR NO CLOUDS BELOW 12,000 FEET WITH NO
SIGNIFICANT WEATHER AND/OR OBSTRUCTIONS TO VISIBILITY.

MSZ001>002-007>008-010>013-018>021-025>028-034>036-240600-
NORTHWEST MISSISSIPPI

CITY           SKY/WX    TMP DP  RH WIND       PRES   REMARKS
CLARKSDALE     FAIR      61  59  94 S15G22    29.48F
CLEVELAND      FAIR      61  57  88 S17       29.51S
GREENWOOD      CLEAR     62  56  80 SW14G24   29.55S
GREENVILLE     CLEAR     63  56  78 SW20      29.52R
GRENADA        FAIR      61  55  82 SW6       29.54S
OLIVE BRANCH   PTCLDY    59  59 100 S18       29.46F
OXFORD         FAIR      57  55  94 S10G20    29.52F
TUNICA         CLEAR     61  55  82 S17       29.47S
$$

MSZ003>006-009-014>017-022>024-029>033-037>039-240600-
NORTHEAST MISSISSIPPI

CITY           SKY/WX    TMP DP  RH WIND       PRES   REMARKS
COLUMBUS AFB   CLEAR     61  57  87 S8        29.60R
CORINTH        MOCLDY    61  57  88 S13G21    29.52S
GOLDN TRIANGLE CLEAR     59  55  88 S10       29.60R
STARKVILLE       N/A     61  55  82 S6        29.60R
TUPELO         CLEAR     58  55  90 S9        29.55S
$$

MSZ040-058-240600-
CENTRAL MISSISSIPPI

CITY           SKY/WX    TMP DP  RH WIND       PRES   REMARKS
JACKSON INTL   CLEAR     62  59  90 S12       29.65R
JACKSON HAWKNS CLEAR     64  59  83 SW12      29.64R
MERIDIAN KEY   MOCLDY    62  59  90 S16       29.67R
MERIDIAN NAS   MOCLDY    65  59  81 SW9G21    29.66R
RAYMOND        FAIR      63  59  88 SW9G17    29.64R
VICKSBURG      CLEAR     65  58  78 SW8G17    29.62R
$$

MSZ059>079-240600-
SOUTH MISSISSIPPI

CITY           SKY/WX    TMP DP  RH WIND       PRES   REMARKS
BROOKHAVEN     FAIR      64  63  94 S12       29.70R
HATTIESBURG    MOCLDY    68  64  87 S14G20    29.72S
MCCOMB         PTCLDY    63  62  97 S7        29.71R
NATCHEZ        CLEAR     64  61  88 SW8G16    29.67R
PINE BELT      CLOUDY    64  61  88 S12G18    29.71S
$$

MSZ080>082-240600-
COASTAL MISSISSIPPI

CITY           SKY/WX    TMP DP  RH WIND       PRES   REMARKS
BILOXI         CLOUDY    65  65 100 SW12      29.76S
PASCAGOULA     CLOUDY    69  67  93 S9G17     29.77R
GULFPORT       CLOUDY    65  64  97 S7        29.76R FOG
$$



USA.gov is the U.S. government's official web portal to all federal, state and local government web resources and services.